Tracking 31027 objects as of 19-Jul-2025
HD Live streaming from Space Station
objects crossing your sky now

ARIANE 42P DEB

Track ARIANE 42P DEB now!
10-day predictions


NORAD ID: 44511
Int'l Code: 1992-052J
Perigee: 1,300.3 km
Apogee: 1,361.8 km
Inclination: 66.1 °
Period: 112.1 minutes
Semi major axis: 7702 km
RCS: Unknown
Launch date: August 10, 1992
Source: France (FR)
Launch site: FRENCH GUIANA (FRGUI)

Note: This is SATELLITE DEBRIS
Your satellite tracking list
KORSAT 7
Track 1 satellite(s)




NASA's NSSDC Master Catalog

Two Line Element Set (TLE):
1 44511U 92052J   25199.34797480  .00000811  00000-0  35977-2 0  9994
2 44511  66.0662 256.4951 0039955 103.6757 256.8713 12.84379758277333
Source of the keplerian elements: AFSPC